Location: *
(45.4590°N, 16.3650°E)
Time: 09:41:24
(UTC+00:00)

COSMOS 2428 - Pass Details

Date: 17 January 2020
Orbit: 844 x 858 km, 70.9° (Epoch: 27 February)

Event Time Altitude Azimuth Distance (km) Brightness Sun altitude
Rises 16:01:52 0° 339° (NNW) 3,440 5.8 -4.3°
Reaches altitude 10° 16:04:35 10° 348° (NNW) 2,501 5.0 -4.8°
Maximum altitude 16:09:46 34° 53° (NE) 1,394 3.4 -5.6°
Drops below altitude 10° 16:14:55 10° 117° (ESE) 2,489 4.8 -6.4°
Sets 16:17:37 0° 127° (SE) 3,420 5.6 -6.8°
